Home   Weather   Rankweil   Past weeks
Flag for Austria

Past Weather in Rankweil, Vorarlberg, Austria — Yesterday and Last 2 Weeks

Now
79 °F

Pleasantly warm.


Feels Like: 79 °F
Forecast: 71 / 59 °F
Wind: 3 mph from Southeast

Location: Feldkirch

Current Time: Jun 19, 2019 at 11:18:07 pm

Latest Report: Jun 19, 2019 at 10:00 pm


Visibility: N/A

Pressure: 29.78 "Hg

Humidity: 35%

Dew Point: 48 °F

Location of RankweilLocation

Past Weather in Rankweil — Graph

°F

Rankweil Temperature Yesterday

Maximum temperature yesterday: 82 °F (at 5:00 pm)
Minimum temperature yesterday: 59 °F (at 6:00 am)
Average temperature yesterday: 71 °F

High & Low Weather Summary for the Past Weeks

 TemperatureHumidityPressure
High89 °F (Jun 5, 7:00 pm)98% (Jun 12, 4:00 am)30.26 "Hg (Jun 12, 4:00 am)
Low49 °F (Jun 7, 6:00 am)16% (Jun 7, 2:00 pm)29.50 "Hg (Jun 5, 6:00 pm)
Average66 °F66%29.93 "Hg
* Reported Jun 4 9:00 pm — Jun 19 9:00 pm, Rankweil. Weather by CustomWeather, © 2019

Note: Actual official high and low records may vary slightly from our data, if they occured in-between our weather recording intervals... More about our weather records

Advertising

Rankweil Weather History for the Previous 24 Hours

Scroll right to see more
 ConditionsComfort  
Time TempWeatherWind HumidityBarometerVisibility
9:00 pm
Wed, Jun 19
76 °FPassing clouds.2 mph49%29.76 "Hg2 mi
8:00 pm79 °FPleasantly warm.1 mph38%29.75 "HgN/A
7:00 pm81 °FPleasantly warm.2 mph39%29.74 "HgN/A
6:00 pm84 °FPleasantly warm.3 mph39%29.74 "HgN/A
5:00 pm85 °FPleasantly warm.2 mph38%29.75 "HgN/A
4:00 pm84 °FWarm.3 mph42%29.77 "HgN/A
3:00 pm85 °FWarm.2 mph43%29.78 "HgN/A
2:00 pm85 °FPleasantly warm.1 mph36%29.79 "HgN/A
1:00 pm83 °FPleasantly warm.No wind38%29.81 "HgN/A
12:00 pm82 °FPleasantly warm.1 mph37%29.82 "HgN/A
11:00 am79 °FWarm.2 mph43%29.84 "HgN/A
10:00 am76 °FMild.2 mph45%29.86 "HgN/A
9:00 am73 °FMild.1 mph53%29.88 "HgN/A
8:00 am70 °FMild.1 mph54%29.90 "HgN/A
7:00 am68 °FPassing clouds.6 mph53%29.92 "Hg19 mi
6:00 am68 °FMild.6 mph55%29.91 "HgN/A
5:00 am69 °FMild.5 mph52%29.89 "HgN/A
4:00 am69 °FMild.6 mph56%29.89 "HgN/A
3:00 am66 °FMild.3 mph68%29.92 "HgN/A
2:00 am66 °FMild.1 mph74%29.95 "HgN/A
1:00 am68 °FMild.5 mph68%29.95 "HgN/A
12:00 am67 °FMild.7 mph71%29.96 "HgN/A
11:00 pm
Tue, Jun 18
67 °FMild.7 mph74%29.95 "HgN/A
Weather by CustomWeather, © 2019

See weather overview